STARLINK-4666, 53789

Orbit data source: Space-Track

STARLINK-4666, 53789 is a payload satellite owned by SpaceX/Seattle (US) in LEO that was launched on Sun, 11 Sep 2022 UTC via an FALCON 9 launch vehicle from the Air Force Eastern Test Range (AFETR). Payload-class satellites include a variety of spacecraft equipped with specific instruments for various scientific and technological missions. These include communications satellites like Starlink; space stations such as the ISS; scientific satellites like the Hubble; Earth observation satellites from companies like Planet Labs, Umbra, and HawkEye 360; GPS; miniature CubeSats for education and research; and military/defense satellites.

Loading next visibility...
Identifier
53789, 2022-111S
Orbit
LEO
Country
Flag of USUS
Related business
Manufacturer
SpaceX/Seattle
Mission
Operational Commercial Communications
Bus & Motor
STARLINK, Unknown motor
Mass
305 kg wet, ~290 kg dry
Launch date (UTC)
2022-09-11 (3 years ago)
Launch vehicle
FALCON 9
Launch site
Air Force Eastern Test Range (AFETR)
Object type
Payload
Rocket body
Debris
Shape & HBR
Box + 1 Pan, 10.1 m
Radar Cross Section
13.562 m², Large (>1 m²)

Expand to show TLE details & history
Last TLE update: 10 hours ago

TLE from 10 hours ago
0 STARLINK-4666
1 53789U 22111S   26035.39453955  .00010857  00000-0  69906-3 0  9992
2 53789  53.2160  63.3155 0001670  87.6306 272.4877 15.08847890188664
Epoch: 2026-02-04T09:28Z
TLE epoch observation values (Epoch: 2026-02-04T09:28:08.217Z)
Latitude
-0.00003°
Longitude
146.71949°
Altitude
540.567 km
Speed
7.593 km/s
True Right ascension
04h 13m 15s
True Declination
0° 00' 00"
Sunlit
Object was in daylight at epoch
Visualization orbit readout
Latitude
Unknown
Longitude
Unknown
Altitude
Unknown
Speed
Unknown
Apparent Right ascension
Unknown
Apparent Declination
Unknown
Sunlit
N/A
Visualization observer readout
Local Sidereal Time
21:47:44
Azimuth
Unknown
Elevation
Unknown
Doppler factor
Unknown
Orbital elements
Apogee altitude
541.12 km
Perigee altitude
538.809 km
Semi-major axis
6,918.101 km
Eccentricity
0.00017
Inclination
53.216°
RAAN
63.3155°
Arg. of periapsis
87.6306°
True anomaly
272.46858°
Mean anomaly
272.4877°
Eccentric anomaly
272.47814°
Mean motion
3.77192 °/min
Orbital period
95.44 mins
BSTAR
0.00069906
Loading maneuver chart data...
Computing Atmospheric mass density...
Loading historical data...
Loading historical data...
Loading historical data...
Loading historical data...
Loading historical data...
Loading historical data...
Loading historical data...

Documentation

Showing up to 5 results
|